Home   Weather   Montego Bay   Past weeks

Flag for Jamaica Past Weather in Montego Bay, Jamaica — Yesterday and Last 2 Weeks

Now
81 °F

Partly sunny.


Feels Like: 85 °F
Forecast: 72 / 86 °F
Wind: 9 mph from East

Location: Montego Bay / Sangster

Current Time: Feb 26, 2017 at 7:07:21 pm

Latest Report: Feb 26, 2017 at 6:00 pm


Visibility: N/A

Pressure: 29.98 "Hg

Humidity: 74%

Dew Point: 72 °F

Location of Montego BayLocation

Past Weather in Montego Bay — Graph

°F

Montego Bay Temperature Yesterday

Maximum temperature yesterday: 84 °F (at 11:00 am)
Minimum temperature yesterday: 72 °F (at 4:00 am)
Average temperature yesterday: 79 °F

High & Low Weather Summary for the Past Weeks

 TemperatureHumidityPressure
High90 °F (Feb 24, 1:00 pm)100% (Feb 21, 4:00 am)30.09 "Hg (Feb 21, 4:00 am)
Low68 °F (Feb 22, 3:00 am)38% (Feb 22, 11:00 am)29.71 "Hg (Feb 23, 3:00 am)
Average79 °F72%29.95 "Hg
* Reported Feb 11 5:00 pm — Feb 26 5:00 pm, Montego Bay, Weather by CustomWeather, © 2017

Note: Actual official high and low records may vary slightly from our data, if they occured in-between our weather recording intervals... More about our weather records

Advertising

Montego Bay Weather History for the Previous 24 Hours

Scroll right to see more
 ConditionsComfort  
Time TempWeatherWind HumidityBarometerVisibility
5:00 pm
Sun, Feb 26
81 °FPartly sunny.9 mph74%29.95 "HgN/A
4:00 pm82 °FScattered clouds.13 mph70%29.95 "HgN/A
3:00 pm84 °FPassing clouds.17 mph66%29.95 "HgN/A
2:00 pm86 °FPassing clouds.16 mph62%29.95 "HgN/A
1:00 pm86 °FPassing clouds.16 mph62%29.98 "HgN/A
12:00 pm84 °FPassing clouds.14 mph66%30.01 "HgN/A
11:00 am82 °FPassing clouds.13 mph70%30.04 "HgN/A
10:00 am82 °FPassing clouds.12 mph66%30.04 "HgN/A
9:00 am82 °FPassing clouds.8 mph66%30.04 "HgN/A
8:00 am79 °FPassing clouds.7 mph74%30.01 "HgN/A
7:00 am73 °FPassing clouds.2 mph89%30.01 "HgN/A
6:00 am72 °FPassing clouds.1 mph88%29.98 "HgN/A
5:00 am72 °FPassing clouds.2 mph88%29.95 "HgN/A
4:00 am72 °FPassing clouds.3 mph83%29.95 "HgN/A
3:00 am72 °FPassing clouds.1 mph83%29.92 "HgN/A
2:00 am73 °FPassing clouds.2 mph78%29.92 "HgN/A
1:00 am75 °FPassing clouds.2 mph74%29.95 "HgN/A
12:00 am77 °FPassing clouds.6 mph69%29.98 "HgN/A
11:00 pm
Sat, Feb 25
77 °FPassing clouds.2 mph69%29.98 "HgN/A
10:00 pm77 °FPassing clouds.2 mph69%29.98 "HgN/A
9:00 pm77 °FPassing clouds.2 mph69%29.98 "HgN/A
8:00 pm77 °FPassing clouds.2 mph65%29.95 "HgN/A
7:00 pm81 °FPassing clouds.5 mph66%29.92 "HgN/A
Weather by CustomWeather, © 2017

See weather overviewHow to use our weather pages